Location: Limoges
(45.8354°N, 1.2645°E)
Time: 19:29:34
(UTC+02:00)

Courier 1B Rocket - Pass Details

Date: 01 March 2024
Orbit: 920 x 1201 km, 28.2° (Epoch: 20 April)

Event Time Altitude Azimuth Distance (km) Brightness Sun altitude
Rises 04:18:15 0° 241° (WSW) 3,631 - -33.9°
Reaches altitude 10° 04:22:15 10° 218° (SW) 2,644 - -33.2°
Maximum altitude 04:25:27 14° 187° (S) 2,318 - -32.7°
Drops below altitude 10° 04:28:37 10° 156° (SSE) 2,605 - -32.2°
Exits shadow 04:29:06 - 153° (SSE) 2,696 7.3 -32.2°
Sets 04:32:30 0° 133° (SE) 3,543 8.2 -31.6°
